Crosby, ND

5:51 PM CST on February 08, 2016 (GMT -0600)
Crosby

Weather History for KD50 - August, 2014

Change the Weather History Date:

Friday, August 8, 2014

  Actual Average (KISN) Record (KISN)
Temperature  
Mean Temperature 74 °F 71 °F  
Max Temperature 86 °F 86 °F 105 °F (1958)
Min Temperature 62 °F 56 °F 38 °F (1927)
Degree Days  
Heating Degree Days 0 1  
Month to date heating degree days 8  
Since 1 June heating degree days 152  
Since 1 July heating degree days 32  
Cooling Degree Days 9 7  
Month to date cooling degree days 56  
Year to date cooling degree days 319  
Since 1 June cooling degree days 306  
Growing Degree Days 24 (Base 50)    
Moisture  
Dew Point 67 °F    
Average Humidity 80    
Maximum Humidity 100    
Minimum Humidity 45    
Precipitation  
Precipitation 0.00 in 0.05 in 0.65 in (1928)
Month to date precipitation 0.39  
Year to date precipitation 10.06  
Sea Level Pressure  
Sea Level Pressure 29.92 in    
Wind  
Wind Speed 13 mph (South)    
Max Wind Speed 20 mph    
Max Gust Speed 24 mph    
T = Trace of Precipitation, MM = Missing Value Source: NWS Daily Summary

Daily Weather History Graph

Daily Weather History Graph

Search for Another Location

Airport or City:

Trip Planner

Search our weather history database for the weather conditions in past years. The results will help you decide how hot, cold, wet, or windy it might be!

Date:

Astronomy

Aug. 08, 2014 Rise Set
Actual Time 6:35 AM CDT 9:20 PM CDT
Civil Twilight 5:59 AM CDT 9:56 PM CDT
Nautical Twilight 5:13 AM CDT 10:42 PM CDT
Astronomical Twilight 4:18 AM CDT 11:37 PM CDT
Moon 7:35 PM CDT 4:07 AM CDT
Length of Visible Light 15h 56m
Length of Day
14h 44m
Waxing Gibbous, 94% of the Moon is Illuminated
Aug 8
Waxing Gibbous
Aug 10
Full
Aug 17
Last Quarter
Aug 25
New
Sep 2
First Quarter

Hourly Weather History & Observations

Time (CDT) Temp. Heat Index Dew Point Humidity Pressure Visibility Wind Dir Wind Speed Gust Speed Precip Events Conditions
12:15 AM 71.6 °F - 71.6 °F 100% 29.91 in - South 19.6 mph 23.0 mph N/A   Unknown
12:35 AM 69.8 °F - 69.8 °F 100% 29.92 in - South 16.1 mph - N/A   Unknown
12:55 AM 69.8 °F - 69.8 °F 100% 29.91 in - South 17.3 mph 24.2 mph N/A   Unknown
1:15 AM 69.8 °F - 69.8 °F 100% 29.91 in - South 18.4 mph 24.2 mph N/A   Unknown
1:35 AM 69.8 °F - 69.8 °F 100% 29.91 in - South 17.3 mph 21.9 mph N/A   Unknown
1:55 AM 68.0 °F - 68.0 °F 100% 29.91 in - South 16.1 mph 21.9 mph N/A   Unknown
2:15 AM 68.0 °F - 68.0 °F 100% 29.90 in - South 17.3 mph 20.7 mph N/A   Unknown
2:35 AM 68.0 °F - 68.0 °F 100% 29.90 in - South 12.7 mph 18.4 mph N/A   Unknown
2:55 AM 68.0 °F - 68.0 °F 100% 29.91 in - SSW 11.5 mph - N/A   Unknown
3:15 AM 68.0 °F - 68.0 °F 100% 29.91 in - South 12.7 mph - N/A   Unknown
3:35 AM 68.0 °F - 68.0 °F 100% 29.91 in - South 11.5 mph - N/A   Unknown
3:55 AM 66.2 °F - 66.2 °F 100% 29.92 in - South 11.5 mph - N/A   Unknown
4:15 AM 66.2 °F - 66.2 °F 100% 29.92 in - South 10.4 mph - N/A   Unknown
4:35 AM 66.2 °F - 66.2 °F 100% 29.92 in - South 11.5 mph - N/A   Unknown
4:55 AM 66.2 °F - 66.2 °F 100% 29.92 in - South 12.7 mph - N/A   Unknown
5:15 AM 66.2 °F - 66.2 °F 100% 29.92 in - South 11.5 mph - N/A   Unknown
5:35 AM 66.2 °F - 66.2 °F 100% 29.93 in - South 9.2 mph - N/A   Unknown
5:55 AM 66.2 °F - 66.2 °F 100% 29.93 in - South 11.5 mph - N/A   Unknown
6:15 AM 64.4 °F - 64.4 °F 100% 29.93 in - South 11.5 mph - N/A   Unknown
6:35 AM 64.4 °F - 64.4 °F 100% 29.94 in - SSW 8.1 mph - N/A   Unknown
6:55 AM 64.4 °F - 64.4 °F 100% 29.95 in - SW 3.5 mph - N/A   Unknown
7:15 AM 62.6 °F - 62.6 °F 100% 29.96 in - SW 3.5 mph - N/A   Unknown
7:35 AM 64.4 °F - 64.4 °F 100% 29.95 in - SSW 6.9 mph - N/A   Unknown
7:55 AM 64.4 °F - 64.4 °F 100% 29.95 in - SSW 6.9 mph - N/A   Unknown
8:15 AM 66.2 °F - 66.2 °F 100% 29.95 in - South 10.4 mph - N/A   Unknown
8:35 AM 66.2 °F - 66.2 °F 100% 29.94 in - SSW 6.9 mph - N/A   Unknown
8:55 AM 68.0 °F - 68.0 °F 100% 29.94 in - SSW 11.5 mph - N/A   Unknown
9:15 AM 69.8 °F - 69.8 °F 100% 29.93 in - SSW 10.4 mph - N/A   Unknown
9:35 AM 71.6 °F - 69.8 °F 94% 29.94 in - SSW 12.7 mph - N/A   Unknown
9:55 AM 71.6 °F - 69.8 °F 94% 29.94 in - SSW 10.4 mph - N/A   Unknown
10:15 AM 73.4 °F - 69.8 °F 88% 29.94 in - SSW 9.2 mph - N/A   Unknown
10:35 AM 73.4 °F - 68.0 °F 83% 29.95 in - South 10.4 mph - N/A   Clear
10:55 AM 75.2 °F - 69.8 °F 83% 29.95 in - SSW 10.4 mph - N/A   Clear
11:15 AM 77.0 °F - 69.8 °F 78% 29.94 in - South 10.4 mph - N/A   Clear
11:35 AM 77.0 °F - 69.8 °F 78% 29.95 in - South 10.4 mph - N/A   Clear
11:55 AM 78.8 °F - 71.6 °F 78% 29.95 in - SSW 9.2 mph - N/A   Clear
12:15 PM 80.6 °F 83.2 °F 68.0 °F 65% 29.94 in - SSW 10.4 mph - N/A   Clear
12:35 PM 80.6 °F 83.2 °F 68.0 °F 65% 29.94 in - South 10.4 mph - N/A   Clear
12:55 PM 80.6 °F 83.2 °F 68.0 °F 65% 29.94 in - SW 9.2 mph - N/A   Clear
1:15 PM 82.4 °F 85.4 °F 68.0 °F 62% 29.94 in - South 11.5 mph - N/A   Clear
1:35 PM 82.4 °F 85.4 °F 68.0 °F 62% 29.94 in - SSW 10.4 mph - N/A   Clear
1:55 PM 82.4 °F 85.4 °F 68.0 °F 62% 29.93 in - SSW 11.5 mph - N/A   Clear
2:15 PM 84.2 °F 87.3 °F 68.0 °F 58% 29.93 in - South 11.5 mph 17.3 mph N/A   Clear
2:35 PM 84.2 °F 86.6 °F 66.2 °F 55% 29.93 in - SSW 12.7 mph 18.4 mph N/A   Clear
2:55 PM 84.2 °F 86.6 °F 66.2 °F 55% 29.93 in - South 15.0 mph - N/A   Clear
3:35 PM 86.0 °F 86.6 °F 62.6 °F 45% 29.92 in - South 15.0 mph 19.6 mph N/A   Clear
3:55 PM 86.0 °F 86.6 °F 62.6 °F 45% 29.92 in - South 13.8 mph - N/A   Clear
4:15 PM 86.0 °F 87.3 °F 64.4 °F 48% 29.92 in - South 12.7 mph 18.4 mph N/A   Clear
4:35 PM 86.0 °F 86.6 °F 62.6 °F 45% 29.92 in - South 13.8 mph - N/A   Clear
4:55 PM 86.0 °F 87.3 °F 64.4 °F 48% 29.92 in - South 11.5 mph 18.4 mph N/A   Clear
5:15 PM 86.0 °F 87.3 °F 64.4 °F 48% 29.91 in - SSE 13.8 mph 21.9 mph N/A   Clear
5:35 PM 84.2 °F 85.6 °F 64.4 °F 51% 29.91 in - SSE 12.7 mph 20.7 mph N/A   Clear
5:55 PM 84.2 °F 85.6 °F 64.4 °F 51% 29.91 in - SSE 15.0 mph 20.7 mph N/A   Clear
6:15 PM 84.2 °F 85.6 °F 64.4 °F 51% 29.91 in - SSE 12.7 mph 18.4 mph N/A   Clear
6:35 PM 84.2 °F 85.6 °F 64.4 °F 51% 29.90 in - South 11.5 mph 19.6 mph N/A   Clear
6:55 PM 82.4 °F 83.9 °F 64.4 °F 54% 29.90 in - SSE 15.0 mph 21.9 mph N/A   Clear
7:15 PM 82.4 °F 84.6 °F 66.2 °F 58% 29.90 in - SSE 12.7 mph - N/A   Clear
7:35 PM 82.4 °F 84.6 °F 66.2 °F 58% 29.90 in - SSE 13.8 mph - N/A   Clear
7:55 PM 80.6 °F 82.7 °F 66.2 °F 61% 29.89 in - SSE 13.8 mph 19.6 mph N/A   Clear
8:15 PM 80.6 °F 82.7 °F 66.2 °F 61% 29.89 in - SSE 12.7 mph 19.6 mph N/A   Clear
8:35 PM 77.0 °F - 66.2 °F 69% 29.90 in - South 15.0 mph 18.4 mph N/A   Clear
8:55 PM 77.0 °F - 66.2 °F 69% 29.90 in - South 13.8 mph - N/A   Clear
9:15 PM 75.2 °F - 66.2 °F 73% 29.91 in - South 13.8 mph - N/A   Clear
9:35 PM 75.2 °F - 66.2 °F 73% 29.91 in - South 13.8 mph 19.6 mph N/A   Clear
9:55 PM 73.4 °F - 66.2 °F 78% 29.92 in - South 12.7 mph 18.4 mph N/A   Clear
10:15 PM 73.4 °F - 66.2 °F 78% 29.92 in - South 13.8 mph - N/A   Clear
10:35 PM 71.6 °F - 66.2 °F 83% 29.92 in - South 15.0 mph - N/A   Clear
10:55 PM 71.6 °F - 66.2 °F 83% 29.93 in - SSE 16.1 mph 20.7 mph N/A   Clear
11:15 PM 71.6 °F - 66.2 °F 83% 29.92 in - South 15.0 mph 21.9 mph N/A   Clear
11:35 PM 71.6 °F - 66.2 °F 83% 29.93 in - South 17.3 mph 24.2 mph N/A   Clear
11:55 PM 71.6 °F - 66.2 °F 83% 29.94 in - South 13.8 mph 19.6 mph N/A   Clear